Tabellarische Ansicht des 13.7.2021


Die einzelnen Werte des Tages

Uhrzeit Temperatur Luftdruck Luftfeuchte Wind Hi-Wind Taupunkt THW Index Wind Chill Heat Index Solar- strahlung Regen

00:00

21.3 C

1006.0 hpa

80 %

0.0 km/h aus 114

0.0 km/h aus ---

17.7 C

22.0 C

21.3 C

22.0 C

0 W/m

0.00 mm

00:05

21.3 C

1006.0 hpa

81 %

0.0 km/h aus 113

0.0 km/h aus ---

17.9 C

22.1 C

21.3 C

22.1 C

0 W/m

0.00 mm

00:10

21.3 C

1006.0 hpa

81 %

0.0 km/h aus 117

0.0 km/h aus ---

17.9 C

21.9 C

21.3 C

21.9 C

0 W/m

0.00 mm

00:15

21.2 C

1005.9 hpa

81 %

0.0 km/h aus 117

0.0 km/h aus ---

17.8 C

21.9 C

21.2 C

21.9 C

0 W/m

0.00 mm

00:20

21.2 C

1005.9 hpa

81 %

0.0 km/h aus 116

0.0 km/h aus ---

17.8 C

21.9 C

21.2 C

21.9 C

0 W/m

0.00 mm

00:25

21.2 C

1005.9 hpa

81 %

0.0 km/h aus 114

0.0 km/h aus ---

17.8 C

21.8 C

21.2 C

21.8 C

0 W/m

0.00 mm

00:30

21.2 C

1005.9 hpa

82 %

0.0 km/h aus 116

0.0 km/h aus ---

18.0 C

21.9 C

21.2 C

21.9 C

0 W/m

0.00 mm

00:35

21.1 C

1005.9 hpa

82 %

0.0 km/h aus 117

0.0 km/h aus ---

17.9 C

21.8 C

21.1 C

21.8 C

0 W/m

0.00 mm

00:40

21.1 C

1005.9 hpa

82 %

0.0 km/h aus 117

0.0 km/h aus ---

17.9 C

21.8 C

21.1 C

21.8 C

0 W/m

0.00 mm

00:45

21.1 C

1005.9 hpa

83 %

0.0 km/h aus 114

0.0 km/h aus ---

18.1 C

21.8 C

21.1 C

21.8 C

0 W/m

0.00 mm

00:50

21.1 C

1005.9 hpa

83 %

0.0 km/h aus 118

0.0 km/h aus ---

18.1 C

21.8 C

21.1 C

21.8 C

0 W/m

0.00 mm

00:55

21.1 C

1005.9 hpa

83 %

0.0 km/h aus 117

0.0 km/h aus ---

18.1 C

21.8 C

21.1 C

21.8 C

0 W/m

0.00 mm

01:00

21.0 C

1005.9 hpa

83 %

0.0 km/h aus 117

0.0 km/h aus ---

18.0 C

21.8 C

21.0 C

21.8 C

0 W/m

0.00 mm

01:05

20.9 C

1005.9 hpa

83 %

0.0 km/h aus 115

0.0 km/h aus ---

17.9 C

21.7 C

20.9 C

21.7 C

0 W/m

0.00 mm

01:10

20.9 C

1005.9 hpa

83 %

1.6 km/h aus 114

6.4 km/h aus SE

17.9 C

21.7 C

20.9 C

21.7 C

0 W/m

0.00 mm

01:15

20.9 C

1005.8 hpa

83 %

0.0 km/h aus 117

4.8 km/h aus ESE

17.9 C

21.7 C

20.9 C

21.7 C

0 W/m

0.00 mm

01:20

20.8 C

1005.8 hpa

83 %

0.0 km/h aus 115

0.0 km/h aus ---

17.8 C

21.7 C

20.8 C

21.7 C

0 W/m

0.00 mm

01:25

20.8 C

1005.8 hpa

84 %

1.6 km/h aus 116

4.8 km/h aus ESE

18.0 C

21.7 C

20.8 C

21.7 C

0 W/m

0.00 mm

01:30

20.8 C

1005.8 hpa

84 %

0.0 km/h aus 115

0.0 km/h aus ---

18.0 C

21.7 C

20.8 C

21.7 C

0 W/m

0.00 mm

01:35

20.7 C

1005.8 hpa

84 %

0.0 km/h aus 117

0.0 km/h aus ---

17.9 C

21.6 C

20.7 C

21.6 C

0 W/m

0.00 mm

01:40

20.7 C

1005.8 hpa

83 %

0.0 km/h aus 117

0.0 km/h aus ---

17.7 C

21.6 C

20.7 C

21.6 C

0 W/m

0.00 mm

01:45

20.7 C

1005.7 hpa

84 %

0.0 km/h aus 116

0.0 km/h aus ---

17.9 C

21.6 C

20.7 C

21.6 C

0 W/m

0.00 mm

01:50

20.6 C

1005.7 hpa

84 %

0.0 km/h aus 114

0.0 km/h aus ---

17.8 C

21.6 C

20.6 C

21.6 C

0 W/m

0.00 mm

01:55

20.6 C

1005.7 hpa

84 %

0.0 km/h aus 118

0.0 km/h aus ---

17.8 C

21.6 C

20.6 C

21.6 C

0 W/m

0.00 mm

02:00

20.6 C

1005.7 hpa

84 %

0.0 km/h aus 116

0.0 km/h aus ---

17.8 C

21.5 C

20.6 C

21.5 C

0 W/m

0.00 mm

02:05

20.5 C

1005.7 hpa

84 %

0.0 km/h aus 117

0.0 km/h aus ---

17.7 C

21.4 C

20.5 C

21.4 C

0 W/m

0.00 mm

02:10

20.4 C

1005.7 hpa

85 %

0.0 km/h aus 114

0.0 km/h aus ---

17.8 C

21.4 C

20.4 C

21.4 C

0 W/m

0.00 mm

02:15

20.4 C

1005.7 hpa

85 %

0.0 km/h aus 115

0.0 km/h aus ---

17.8 C

21.3 C

20.4 C

21.3 C

0 W/m

0.00 mm

02:20

20.3 C

1005.7 hpa

85 %

0.0 km/h aus 116

0.0 km/h aus ---

17.7 C

21.2 C

20.3 C

21.2 C

0 W/m

0.00 mm

02:25

20.2 C

1005.7 hpa

85 %

0.0 km/h aus 117

0.0 km/h aus ---

17.6 C

21.1 C

20.2 C

21.1 C

0 W/m

0.00 mm

02:30

20.1 C

1005.3 hpa

85 %

0.0 km/h aus 117

0.0 km/h aus ---

17.5 C

21.0 C

20.1 C

21.0 C

0 W/m

0.00 mm

02:35

20.1 C

1005.3 hpa

85 %

0.0 km/h aus 114

0.0 km/h aus ---

17.5 C

20.9 C

20.1 C

20.9 C

0 W/m

0.00 mm

02:40

19.9 C

1005.3 hpa

85 %

0.0 km/h aus 117

0.0 km/h aus ---

17.3 C

20.8 C

19.9 C

20.8 C

0 W/m

0.00 mm

02:45

19.9 C

1005.5 hpa

85 %

0.0 km/h aus 116

0.0 km/h aus ---

17.3 C

20.7 C

19.9 C

20.7 C

0 W/m

0.00 mm

02:50

19.8 C

1005.5 hpa

85 %

0.0 km/h aus 117

0.0 km/h aus ---

17.2 C

20.6 C

19.8 C

20.6 C

0 W/m

0.00 mm

02:55

19.7 C

1005.5 hpa

84 %

0.0 km/h aus 115

0.0 km/h aus ---

16.9 C

20.5 C

19.7 C

20.5 C

0 W/m

0.00 mm

03:00

19.6 C

1005.4 hpa

84 %

0.0 km/h aus 115

0.0 km/h aus ---

16.8 C

20.3 C

19.6 C

20.3 C

0 W/m

0.00 mm

03:05

19.5 C

1005.4 hpa

85 %

0.0 km/h aus 117

0.0 km/h aus ---

16.9 C

20.2 C

19.5 C

20.2 C

0 W/m

0.00 mm

03:10

19.4 C

1005.4 hpa

85 %

0.0 km/h aus 117

0.0 km/h aus ---

16.9 C

20.2 C

19.4 C

20.2 C

0 W/m

0.00 mm

03:15

19.3 C

1005.4 hpa

85 %

0.0 km/h aus 116

0.0 km/h aus ---

16.7 C

20.0 C

19.3 C

20.0 C

0 W/m

0.00 mm

03:20

19.2 C

1005.4 hpa

84 %

0.0 km/h aus 113

0.0 km/h aus ---

16.5 C

19.8 C

19.2 C

19.8 C

0 W/m

0.00 mm

03:25

19.2 C

1005.4 hpa

85 %

0.0 km/h aus 116

0.0 km/h aus ---

16.6 C

19.8 C

19.2 C

19.8 C

0 W/m

0.00 mm

03:30

19.1 C

1005.4 hpa

85 %

0.0 km/h aus 117

0.0 km/h aus ---

16.5 C

19.7 C

19.1 C

19.7 C

0 W/m

0.00 mm

03:35

19.0 C

1005.4 hpa

85 %

0.0 km/h aus 116

0.0 km/h aus ---

16.4 C

19.6 C

19.0 C

19.6 C

0 W/m

0.00 mm

03:40

18.9 C

1005.4 hpa

85 %

0.0 km/h aus 115

0.0 km/h aus ---

16.4 C

19.5 C

18.9 C

19.5 C

0 W/m

0.00 mm

03:45

18.8 C

1005.3 hpa

85 %

0.0 km/h aus 114

0.0 km/h aus ---

16.3 C

19.4 C

18.8 C

19.4 C

0 W/m

0.00 mm

03:50

18.7 C

1005.3 hpa

85 %

0.0 km/h aus 117

0.0 km/h aus ---

16.1 C

19.2 C

18.7 C

19.2 C

0 W/m

0.00 mm

03:55

18.7 C

1005.3 hpa

85 %

0.0 km/h aus 116

0.0 km/h aus ---

16.1 C

19.2 C

18.7 C

19.2 C

0 W/m

0.00 mm

04:00

18.7 C

1005.3 hpa

85 %

0.0 km/h aus 118

0.0 km/h aus ---

16.1 C

19.2 C

18.7 C

19.2 C

0 W/m

0.00 mm

04:05

18.6 C

1005.3 hpa

85 %

0.0 km/h aus 114

0.0 km/h aus ---

16.0 C

19.1 C

18.6 C

19.1 C

0 W/m

0.00 mm

04:10

18.5 C

1005.3 hpa

85 %

0.0 km/h aus 116

0.0 km/h aus ---

15.9 C

19.0 C

18.5 C

19.0 C

0 W/m

0.00 mm

04:15

18.4 C

1005.0 hpa

85 %

0.0 km/h aus 117

0.0 km/h aus ---

15.9 C

18.9 C

18.4 C

18.9 C

0 W/m

0.00 mm

04:20

18.3 C

1005.0 hpa

86 %

0.0 km/h aus 117

0.0 km/h aus ---

15.9 C

18.8 C

18.3 C

18.8 C

0 W/m

0.00 mm

04:25

18.3 C

1005.0 hpa

86 %

0.0 km/h aus 116

0.0 km/h aus ---

15.9 C

18.7 C

18.3 C

18.7 C

0 W/m

0.00 mm

04:30

18.2 C

1005.2 hpa

86 %

0.0 km/h aus 114

0.0 km/h aus ---

15.8 C

18.7 C

18.2 C

18.7 C

0 W/m

0.00 mm

04:35

18.2 C

1005.2 hpa

86 %

0.0 km/h aus 117

0.0 km/h aus ---

15.8 C

18.6 C

18.2 C

18.6 C

0 W/m

0.00 mm

04:40

18.1 C

1005.2 hpa

86 %

0.0 km/h aus 116

0.0 km/h aus ---

15.7 C

18.4 C

18.1 C

18.4 C

0 W/m

0.00 mm

04:45

17.9 C

1004.9 hpa

86 %

0.0 km/h aus 116

0.0 km/h aus ---

15.6 C

18.3 C

17.9 C

18.3 C

0 W/m

0.00 mm

04:50

17.8 C

1004.9 hpa

86 %

0.0 km/h aus 114

0.0 km/h aus ---

15.5 C

18.2 C

17.8 C

18.2 C

0 W/m

0.00 mm

04:55

17.8 C

1004.9 hpa

86 %

0.0 km/h aus 115

0.0 km/h aus ---

15.4 C

18.1 C

17.8 C

18.1 C

0 W/m

0.00 mm

05:00

17.7 C

1004.9 hpa

86 %

0.0 km/h aus 117

0.0 km/h aus ---

15.3 C

18.1 C

17.7 C

18.1 C

0 W/m

0.00 mm

05:05

17.7 C

1004.9 hpa

86 %

0.0 km/h aus 118

0.0 km/h aus ---

15.3 C

18.0 C

17.7 C

18.0 C

0 W/m

0.00 mm

05:10

17.6 C

1004.9 hpa

87 %

0.0 km/h aus 116

0.0 km/h aus ---

15.4 C

18.0 C

17.6 C

18.0 C

3 W/m

0.00 mm

05:15

17.5 C

1004.9 hpa

87 %

0.0 km/h aus 112

0.0 km/h aus ---

15.3 C

17.8 C

17.5 C

17.8 C

5 W/m

0.00 mm

05:20

17.4 C

1004.9 hpa

87 %

0.0 km/h aus 117

1.6 km/h aus SE

15.3 C

17.8 C

17.4 C

17.8 C

10 W/m

0.00 mm

05:25

17.4 C

1004.9 hpa

87 %

0.0 km/h aus 117

0.0 km/h aus ---

15.3 C

17.8 C

17.4 C

17.8 C

16 W/m

0.00 mm

05:30

17.4 C

1005.0 hpa

87 %

0.0 km/h aus 117

0.0 km/h aus ---

15.2 C

17.7 C

17.4 C

17.7 C

20 W/m

0.00 mm

05:35

17.4 C

1005.0 hpa

87 %

0.0 km/h aus 116

0.0 km/h aus ---

15.2 C

17.7 C

17.4 C

17.7 C

29 W/m

0.00 mm

05:40

17.4 C

1005.0 hpa

88 %

0.0 km/h aus 115

0.0 km/h aus ---

15.4 C

17.7 C

17.4 C

17.7 C

35 W/m

0.00 mm

05:45

17.4 C

1004.9 hpa

88 %

0.0 km/h aus 117

0.0 km/h aus ---

15.4 C

17.8 C

17.4 C

17.8 C

39 W/m

0.00 mm

05:50

17.5 C

1004.9 hpa

88 %

0.0 km/h aus 117

0.0 km/h aus ---

15.5 C

17.9 C

17.5 C

17.9 C

41 W/m

0.00 mm

05:55

17.6 C

1004.9 hpa

89 %

0.0 km/h aus 117

0.0 km/h aus ---

15.7 C

17.9 C

17.6 C

17.9 C

45 W/m

0.00 mm

06:00

17.7 C

1005.0 hpa

90 %

0.0 km/h aus 114

0.0 km/h aus ---

16.1 C

18.2 C

17.7 C

18.2 C

48 W/m

0.00 mm

06:05

17.8 C

1005.0 hpa

90 %

0.0 km/h aus 114

0.0 km/h aus ---

16.2 C

18.3 C

17.8 C

18.3 C

55 W/m

0.00 mm

06:10

17.9 C

1005.0 hpa

90 %

0.0 km/h aus 118

0.0 km/h aus ---

16.2 C

18.3 C

17.9 C

18.3 C

56 W/m

0.00 mm

06:15

18.0 C

1005.0 hpa

90 %

0.0 km/h aus 117

0.0 km/h aus ---

16.3 C

18.5 C

18.0 C

18.5 C

48 W/m

0.00 mm

06:20

18.1 C

1005.0 hpa

90 %

0.0 km/h aus 116

0.0 km/h aus ---

16.4 C

18.6 C

18.1 C

18.6 C

38 W/m

0.00 mm

06:25

18.2 C

1005.0 hpa

90 %

0.0 km/h aus 114

0.0 km/h aus ---

16.5 C

18.7 C

18.2 C

18.7 C

31 W/m

0.00 mm

06:30

18.2 C

1004.9 hpa

90 %

0.0 km/h aus 117

0.0 km/h aus ---

16.5 C

18.7 C

18.2 C

18.7 C

29 W/m

0.00 mm

06:35

18.2 C

1004.9 hpa

91 %

0.0 km/h aus 117

0.0 km/h aus ---

16.7 C

18.8 C

18.2 C

18.8 C

33 W/m

0.00 mm

06:40

18.3 C

1004.9 hpa

91 %

0.0 km/h aus 116

0.0 km/h aus ---

16.8 C

18.8 C

18.3 C

18.8 C

41 W/m

0.00 mm

06:45

18.4 C

1005.2 hpa

91 %

0.0 km/h aus 115

0.0 km/h aus ---

16.9 C

19.0 C

18.4 C

19.0 C

47 W/m

0.00 mm

06:50

18.4 C

1005.2 hpa

91 %

0.0 km/h aus 115

0.0 km/h aus ---

16.9 C

19.1 C

18.4 C

19.1 C

51 W/m

0.00 mm

06:55

18.5 C

1005.2 hpa

91 %

0.0 km/h aus 117

0.0 km/h aus ---

17.0 C

19.1 C

18.5 C

19.1 C

65 W/m

0.00 mm

07:00

18.6 C

1005.0 hpa

91 %

0.0 km/h aus 117

0.0 km/h aus ---

17.1 C

19.2 C

18.6 C

19.2 C

81 W/m

0.00 mm

07:05

18.6 C

1005.0 hpa

91 %

0.0 km/h aus 117

0.0 km/h aus ---

17.1 C

19.3 C

18.6 C

19.3 C

88 W/m

0.00 mm

07:10

18.7 C

1005.0 hpa

91 %

0.0 km/h aus 114

0.0 km/h aus ---

17.2 C

19.3 C

18.7 C

19.3 C

86 W/m

0.00 mm

07:15

18.7 C

1005.0 hpa

92 %

0.0 km/h aus 117

0.0 km/h aus ---

17.3 C

19.3 C

18.7 C

19.3 C

81 W/m

0.00 mm

07:20

18.8 C

1005.0 hpa

92 %

0.0 km/h aus 116

0.0 km/h aus ---

17.5 C

19.5 C

18.8 C

19.5 C

72 W/m

0.00 mm

07:25

18.8 C

1005.0 hpa

92 %

0.0 km/h aus 117

0.0 km/h aus ---

17.5 C

19.6 C

18.8 C

19.6 C

66 W/m

0.00 mm

07:30

18.9 C

1005.2 hpa

92 %

0.0 km/h aus 115

3.2 km/h aus SE

17.6 C

19.7 C

18.9 C

19.7 C

70 W/m

0.00 mm

07:35

19.1 C

1005.2 hpa

92 %

0.0 km/h aus 115

0.0 km/h aus ---

17.7 C

19.8 C

19.1 C

19.8 C

86 W/m

0.00 mm

07:40

19.1 C

1005.2 hpa

92 %

0.0 km/h aus 116

0.0 km/h aus ---

17.7 C

19.8 C

19.1 C

19.8 C

102 W/m

0.00 mm

07:45

19.1 C

1004.9 hpa

92 %

0.0 km/h aus 117

0.0 km/h aus ---

17.8 C

19.9 C

19.1 C

19.9 C

104 W/m

0.00 mm

07:50

19.1 C

1004.9 hpa

92 %

0.0 km/h aus 116

0.0 km/h aus ---

17.8 C

19.9 C

19.1 C

19.9 C

85 W/m

0.00 mm

07:55

19.2 C

1004.9 hpa

92 %

0.0 km/h aus 115

0.0 km/h aus ---

17.8 C

19.9 C

19.2 C

19.9 C

75 W/m

0.00 mm

08:00

19.2 C

1004.8 hpa

92 %

0.0 km/h aus 116

0.0 km/h aus ---

17.8 C

19.9 C

19.2 C

19.9 C

84 W/m

0.00 mm

08:05

19.2 C

1004.8 hpa

92 %

0.0 km/h aus 115

0.0 km/h aus ---

17.9 C

20.1 C

19.2 C

20.1 C

88 W/m

0.00 mm

08:10

19.3 C

1004.8 hpa

92 %

0.0 km/h aus 116

0.0 km/h aus ---

17.9 C

20.1 C

19.3 C

20.1 C

67 W/m

0.00 mm

08:15

19.3 C

1004.8 hpa

92 %

0.0 km/h aus 115

0.0 km/h aus ---

18.0 C

20.2 C

19.3 C

20.2 C

58 W/m

0.00 mm

08:20

19.4 C

1004.8 hpa

92 %

0.0 km/h aus 116

0.0 km/h aus ---

18.1 C

20.2 C

19.4 C

20.2 C

63 W/m

0.00 mm

08:25

19.4 C

1004.8 hpa

92 %

0.0 km/h aus 116

0.0 km/h aus ---

18.1 C

20.3 C

19.4 C

20.3 C

82 W/m

0.00 mm

08:30

19.5 C

1005.0 hpa

92 %

0.0 km/h aus 117

0.0 km/h aus ---

18.2 C

20.4 C

19.5 C

20.4 C

85 W/m

0.00 mm

08:35

19.6 C

1005.0 hpa

93 %

0.0 km/h aus 115

0.0 km/h aus ---

18.4 C

20.4 C

19.6 C

20.4 C

87 W/m

0.00 mm

08:40

19.7 C

1005.0 hpa

93 %

0.0 km/h aus 115

0.0 km/h aus ---

18.5 C

20.6 C

19.7 C

20.6 C

82 W/m

0.00 mm

08:45

19.7 C

1005.2 hpa

93 %

0.0 km/h aus 117

0.0 km/h aus ---

18.6 C

20.7 C

19.7 C

20.7 C

79 W/m

0.00 mm

08:50

19.8 C

1005.2 hpa

93 %

0.0 km/h aus 117

0.0 km/h aus ---

18.6 C

20.7 C

19.8 C

20.7 C

79 W/m

0.00 mm

08:55

19.8 C

1005.2 hpa

93 %

0.0 km/h aus 117

0.0 km/h aus ---

18.7 C

20.8 C

19.8 C

20.8 C

88 W/m

0.00 mm

09:00

19.9 C

1005.2 hpa

93 %

0.0 km/h aus 114

0.0 km/h aus ---

18.7 C

20.9 C

19.9 C

20.9 C

102 W/m

0.00 mm

09:05

20.0 C

1005.2 hpa

93 %

0.0 km/h aus 117

0.0 km/h aus ---

18.8 C

21.0 C

20.0 C

21.0 C

104 W/m

0.00 mm

09:10

20.1 C

1005.2 hpa

93 %

0.0 km/h aus 117

0.0 km/h aus ---

18.9 C

21.2 C

20.1 C

21.2 C

106 W/m

0.00 mm

09:15

20.2 C

1005.2 hpa

92 %

0.0 km/h aus 116

0.0 km/h aus ---

18.8 C

21.2 C

20.2 C

21.2 C

133 W/m

0.00 mm

09:20

20.5 C

1005.2 hpa

91 %

0.0 km/h aus 116

0.0 km/h aus ---

19.0 C

21.6 C

20.5 C

21.6 C

183 W/m

0.00 mm

09:25

20.7 C

1005.2 hpa

91 %

0.0 km/h aus 115

0.0 km/h aus ---

19.2 C

21.9 C

20.7 C

21.9 C

256 W/m

0.00 mm

09:30

21.1 C

1005.3 hpa

89 %

0.0 km/h aus 115

0.0 km/h aus ---

19.2 C

22.1 C

21.1 C

22.1 C

332 W/m

0.00 mm

09:35

21.3 C

1005.3 hpa

89 %

0.0 km/h aus 116

0.0 km/h aus ---

19.4 C

22.4 C

21.3 C

22.4 C

354 W/m

0.00 mm

09:40

21.3 C

1005.3 hpa

88 %

0.0 km/h aus 116

0.0 km/h aus ---

19.2 C

22.3 C

21.3 C

22.3 C

350 W/m

0.00 mm

09:45

21.7 C

1005.3 hpa

87 %

0.0 km/h aus 114

0.0 km/h aus ---

19.4 C

22.8 C

21.7 C

22.8 C

380 W/m

0.00 mm

09:50

22.0 C

1005.3 hpa

87 %

0.0 km/h aus 117

4.8 km/h aus SE

19.7 C

23.1 C

22.0 C

23.1 C

491 W/m

0.00 mm

09:55

22.1 C

1005.3 hpa

85 %

0.0 km/h aus 117

3.2 km/h aus SE

19.4 C

23.1 C

22.1 C

23.1 C

443 W/m

0.00 mm

10:00

22.2 C

1005.3 hpa

86 %

1.6 km/h aus 117

4.8 km/h aus SE

19.8 C

23.3 C

22.2 C

23.3 C

401 W/m

0.00 mm

10:05

22.4 C

1005.3 hpa

85 %

1.6 km/h aus 113

6.4 km/h aus SE

19.8 C

23.5 C

22.4 C

23.5 C

406 W/m

0.00 mm

10:10

22.4 C

1005.3 hpa

85 %

1.6 km/h aus 114

4.8 km/h aus SE

19.8 C

23.5 C

22.4 C

23.5 C

326 W/m

0.00 mm

10:15

22.3 C

1005.1 hpa

84 %

1.6 km/h aus 117

4.8 km/h aus SE

19.5 C

23.3 C

22.3 C

23.3 C

259 W/m

0.00 mm

10:20

22.3 C

1005.1 hpa

83 %

1.6 km/h aus 117

4.8 km/h aus SE

19.2 C

23.2 C

22.3 C

23.2 C

248 W/m

0.00 mm

10:25

22.3 C

1005.1 hpa

83 %

0.0 km/h aus 116

1.6 km/h aus SE

19.2 C

23.2 C

22.3 C

23.2 C

232 W/m

0.00 mm

10:30

22.3 C

1005.1 hpa

83 %

0.0 km/h aus 115

1.6 km/h aus SE

19.2 C

23.2 C

22.3 C

23.2 C

222 W/m

0.00 mm

10:35

22.4 C

1005.1 hpa

83 %

0.0 km/h aus 116

1.6 km/h aus SE

19.4 C

23.3 C

22.4 C

23.3 C

245 W/m

0.00 mm

10:40

22.4 C

1005.1 hpa

82 %

0.0 km/h aus 117

0.0 km/h aus ---

19.2 C

23.4 C

22.4 C

23.4 C

258 W/m

0.00 mm

10:45

22.5 C

1005.2 hpa

82 %

0.0 km/h aus 116

0.0 km/h aus ---

19.3 C

23.4 C

22.5 C

23.4 C

249 W/m

0.00 mm

10:50

22.6 C

1005.2 hpa

82 %

0.0 km/h aus 114

0.0 km/h aus ---

19.4 C

23.6 C

22.6 C

23.6 C

208 W/m

0.00 mm

10:55

22.6 C

1005.2 hpa

81 %

0.0 km/h aus 117

0.0 km/h aus ---

19.1 C

23.5 C

22.6 C

23.5 C

190 W/m

0.00 mm

11:00

22.6 C

1005.3 hpa

80 %

0.0 km/h aus 116

1.6 km/h aus SE

19.0 C

23.6 C

22.6 C

23.6 C

167 W/m

0.00 mm

11:05

22.6 C

1005.3 hpa

81 %

0.0 km/h aus 116

0.0 km/h aus ---

19.1 C

23.5 C

22.6 C

23.5 C

143 W/m

0.00 mm

11:10

22.5 C

1005.3 hpa

80 %

0.0 km/h aus 115

0.0 km/h aus ---

18.9 C

23.4 C

22.5 C

23.4 C

128 W/m

0.00 mm

11:15

22.6 C

1005.3 hpa

81 %

0.0 km/h aus 116

0.0 km/h aus ---

19.1 C

23.5 C

22.6 C

23.5 C

124 W/m

0.00 mm

11:20

22.6 C

1005.3 hpa

81 %

0.0 km/h aus 116

0.0 km/h aus ---

19.1 C

23.5 C

22.6 C

23.5 C

117 W/m

0.00 mm

11:25

22.7 C

1005.3 hpa

82 %

0.0 km/h aus 118

0.0 km/h aus ---

19.4 C

23.7 C

22.7 C

23.7 C

129 W/m

0.00 mm

11:30

22.7 C

1005.2 hpa

82 %

0.0 km/h aus 115

0.0 km/h aus ---

19.4 C

23.7 C

22.7 C

23.7 C

141 W/m

0.00 mm

11:35

22.6 C

1005.2 hpa

83 %

0.0 km/h aus 116

0.0 km/h aus ---

19.6 C

23.7 C

22.6 C

23.7 C

143 W/m

0.00 mm

11:40

22.6 C

1005.2 hpa

83 %

0.0 km/h aus 117

4.8 km/h aus SSW

19.6 C

23.7 C

22.6 C

23.7 C

136 W/m

0.00 mm

11:45

22.4 C

1005.3 hpa

84 %

4.8 km/h aus 117

9.7 km/h aus SSW

19.6 C

23.4 C

22.4 C

23.4 C

116 W/m

0.00 mm

11:50

22.2 C

1005.3 hpa

85 %

6.4 km/h aus 115

11.3 km/h aus SSW

19.6 C

23.2 C

22.2 C

23.2 C

103 W/m

0.00 mm

11:55

21.9 C

1005.3 hpa

86 %

6.4 km/h aus 115

11.3 km/h aus SSW

19.5 C

23.0 C

21.9 C

23.0 C

119 W/m

0.00 mm

12:00

21.8 C

1005.3 hpa

87 %

4.8 km/h aus 117

8.0 km/h aus SSW

19.5 C

22.9 C

21.8 C

22.9 C

123 W/m

0.00 mm

12:05

21.7 C

1005.3 hpa

88 %

4.8 km/h aus 117

11.3 km/h aus SSW

19.6 C

22.8 C

21.7 C

22.8 C

119 W/m

0.00 mm

12:10

21.7 C

1005.3 hpa

88 %

3.2 km/h aus 116

8.0 km/h aus SSW

19.6 C

22.8 C

21.7 C

22.8 C

114 W/m

0.25 mm

12:15

21.7 C

1005.2 hpa

89 %

1.6 km/h aus 114

6.4 km/h aus SW

19.8 C

22.8 C

21.7 C

22.8 C

121 W/m

0.00 mm

12:20

21.7 C

1005.2 hpa

89 %

3.2 km/h aus 116

11.3 km/h aus SW

19.8 C

22.9 C

21.7 C

22.9 C

124 W/m

0.00 mm

12:25

21.6 C

1005.2 hpa

89 %

4.8 km/h aus 117

9.7 km/h aus SW

19.7 C

22.8 C

21.6 C

22.8 C

119 W/m

0.00 mm

12:30

21.7 C

1005.3 hpa

90 %

1.6 km/h aus 118

6.4 km/h aus SW

20.0 C

22.9 C

21.7 C

22.9 C

129 W/m

0.00 mm

12:35

21.7 C

1005.3 hpa

90 %

3.2 km/h aus 114

9.7 km/h aus SW

20.0 C

22.9 C

21.7 C

22.9 C

155 W/m

0.00 mm

12:40

21.7 C

1005.3 hpa

90 %

4.8 km/h aus 116

11.3 km/h aus WSW

20.0 C

22.9 C

21.7 C

22.9 C

178 W/m

0.00 mm

12:45

21.7 C

1005.3 hpa

89 %

6.4 km/h aus 113

11.3 km/h aus WSW

19.8 C

22.8 C

21.7 C

22.8 C

174 W/m

0.00 mm

12:50

21.7 C

1005.3 hpa

89 %

4.8 km/h aus 117

8.0 km/h aus WSW

19.8 C

22.8 C

21.7 C

22.8 C

166 W/m

0.00 mm

12:55

21.7 C

1005.3 hpa

89 %

4.8 km/h aus 115

9.7 km/h aus WSW

19.8 C

22.9 C

21.7 C

22.9 C

150 W/m

0.00 mm

13:00

21.8 C

1005.3 hpa

90 %

3.2 km/h aus 115

8.0 km/h aus WSW

20.1 C

23.1 C

21.8 C

23.1 C

145 W/m

0.00 mm

13:05

21.7 C

1005.3 hpa

89 %

4.8 km/h aus 117

11.3 km/h aus WSW

19.8 C

22.9 C

21.7 C

22.9 C

156 W/m

0.00 mm

13:10

21.8 C

1005.3 hpa

88 %

4.8 km/h aus 117

8.0 km/h aus WSW

19.7 C

22.9 C

21.8 C

22.9 C

147 W/m

0.00 mm

13:15

21.8 C

1005.4 hpa

88 %

6.4 km/h aus 116

9.7 km/h aus WSW

19.8 C

22.9 C

21.8 C

22.9 C

126 W/m

0.00 mm

13:20

21.8 C

1005.4 hpa

88 %

3.2 km/h aus 114

8.0 km/h aus W

19.8 C

22.9 C

21.8 C

22.9 C

130 W/m

0.00 mm

13:25

21.9 C

1005.4 hpa

88 %

3.2 km/h aus 115

6.4 km/h aus W

19.8 C

23.0 C

21.9 C

23.0 C

132 W/m

0.00 mm

13:30

21.9 C

1005.4 hpa

87 %

3.2 km/h aus 117

8.0 km/h aus W

19.6 C

23.0 C

21.9 C

23.0 C

128 W/m

0.00 mm

13:35

22.0 C

1005.4 hpa

88 %

1.6 km/h aus 117

6.4 km/h aus WSW

19.9 C

23.1 C

22.0 C

23.1 C

128 W/m

0.00 mm

13:40

22.0 C

1005.4 hpa

87 %

1.6 km/h aus 115

8.0 km/h aus WSW

19.7 C

23.1 C

22.0 C

23.1 C

133 W/m

0.00 mm

13:45

22.1 C

1005.4 hpa

87 %

3.2 km/h aus 115

8.0 km/h aus WSW

19.8 C

23.2 C

22.1 C

23.2 C

153 W/m

0.00 mm

13:50

22.1 C

1005.4 hpa

87 %

1.6 km/h aus 117

4.8 km/h aus WSW

19.8 C

23.2 C

22.1 C

23.2 C

154 W/m

0.00 mm

13:55

22.2 C

1005.4 hpa

87 %

3.2 km/h aus 117

9.7 km/h aus W

19.9 C

23.3 C

22.2 C

23.3 C

156 W/m

0.00 mm

14:00

22.2 C

1005.4 hpa

87 %

3.2 km/h aus 115

8.0 km/h aus W

20.0 C

23.3 C

22.2 C

23.3 C

142 W/m

0.00 mm

14:05

22.3 C

1005.4 hpa

87 %

0.0 km/h aus 114

1.6 km/h aus W

20.1 C

23.4 C

22.3 C

23.4 C

137 W/m

0.00 mm

14:10

22.3 C

1005.4 hpa

87 %

3.2 km/h aus 116

9.7 km/h aus W

20.0 C

23.4 C

22.3 C

23.4 C

135 W/m

0.00 mm

14:15

22.2 C

1005.4 hpa

87 %

1.6 km/h aus 117

6.4 km/h aus W

20.0 C

23.3 C

22.2 C

23.3 C

129 W/m

0.00 mm

14:20

22.2 C

1005.4 hpa

87 %

1.6 km/h aus 117

3.2 km/h aus W

20.0 C

23.3 C

22.2 C

23.3 C

144 W/m

0.00 mm

14:25

22.3 C

1005.4 hpa

87 %

1.6 km/h aus 114

4.8 km/h aus W

20.0 C

23.4 C

22.3 C

23.4 C

149 W/m

0.00 mm

14:30

22.3 C

1005.4 hpa

87 %

0.0 km/h aus 114

0.0 km/h aus ---

20.1 C

23.4 C

22.3 C

23.4 C

144 W/m

0.00 mm

14:35

22.4 C

1005.4 hpa

87 %

0.0 km/h aus 118

0.0 km/h aus ---

20.1 C

23.6 C

22.4 C

23.6 C

155 W/m

0.00 mm

14:40

22.4 C

1005.4 hpa

87 %

1.6 km/h aus 117

6.4 km/h aus WNW

20.2 C

23.6 C

22.4 C

23.6 C

189 W/m

0.00 mm

14:45

22.5 C

1005.3 hpa

87 %

3.2 km/h aus 114

6.4 km/h aus WNW

20.2 C

23.7 C

22.5 C

23.7 C

211 W/m

0.00 mm

14:50

22.6 C

1005.3 hpa

87 %

3.2 km/h aus 115

8.0 km/h aus W

20.3 C

23.7 C

22.6 C

23.7 C

226 W/m

0.00 mm

14:55

22.7 C

1005.3 hpa

87 %

1.6 km/h aus 117

4.8 km/h aus WNW

20.4 C

23.9 C

22.7 C

23.9 C

287 W/m

0.00 mm

15:00

22.8 C

1005.3 hpa

86 %

1.6 km/h aus 117

6.4 km/h aus W

20.3 C

24.0 C

22.8 C

24.0 C

278 W/m

0.00 mm

15:05

22.8 C

1005.3 hpa

86 %

1.6 km/h aus 115

6.4 km/h aus W

20.3 C

24.0 C

22.8 C

24.0 C

218 W/m

0.00 mm

15:10

22.8 C

1005.3 hpa

87 %

1.6 km/h aus 115

4.8 km/h aus W

20.5 C

24.1 C

22.8 C

24.1 C

201 W/m

0.00 mm

15:15

22.9 C

1005.3 hpa

87 %

1.6 km/h aus 117

8.0 km/h aus WNW

20.6 C

24.2 C

22.9 C

24.2 C

193 W/m

0.00 mm

15:20

22.9 C

1005.3 hpa

87 %

1.6 km/h aus 116

6.4 km/h aus WNW

20.6 C

24.2 C

22.9 C

24.2 C

198 W/m

0.00 mm

15:25

22.9 C

1005.3 hpa

87 %

1.6 km/h aus 117

6.4 km/h aus WNW

20.6 C

24.2 C

22.9 C

24.2 C

212 W/m

0.00 mm

15:30

23.0 C

1005.3 hpa

87 %

1.6 km/h aus 114

8.0 km/h aus W

20.7 C

24.3 C

23.0 C

24.3 C

206 W/m

0.00 mm

15:35

23.1 C

1005.3 hpa

87 %

1.6 km/h aus 117

6.4 km/h aus W

20.8 C

24.3 C

23.1 C

24.3 C

190 W/m

0.00 mm

15:40

23.0 C

1005.3 hpa

86 %

3.2 km/h aus 117

9.7 km/h aus WNW

20.5 C

24.2 C

23.0 C

24.2 C

169 W/m

0.00 mm

15:45

23.1 C

1005.2 hpa

87 %

1.6 km/h aus 117

6.4 km/h aus WNW

20.8 C

24.3 C

23.1 C

24.3 C

159 W/m

0.00 mm

15:50

23.0 C

1005.2 hpa

86 %

3.2 km/h aus 115

6.4 km/h aus W

20.5 C

24.2 C

23.0 C

24.2 C

148 W/m

0.00 mm

15:55

23.1 C

1005.2 hpa

86 %

1.6 km/h aus 114

4.8 km/h aus WNW

20.6 C

24.3 C

23.1 C

24.3 C

139 W/m

0.00 mm

16:00

23.2 C

1005.3 hpa

87 %

1.6 km/h aus 117

6.4 km/h aus W

20.9 C

24.4 C

23.2 C

24.4 C

147 W/m

0.00 mm

16:05

23.3 C

1005.3 hpa

86 %

1.6 km/h aus 116

3.2 km/h aus W

20.8 C

24.5 C

23.3 C

24.5 C

150 W/m

0.00 mm

16:10

23.2 C

1005.3 hpa

86 %

3.2 km/h aus 115

6.4 km/h aus W

20.7 C

24.4 C

23.2 C

24.4 C

132 W/m

0.00 mm

16:15

23.2 C

1005.3 hpa

86 %

0.0 km/h aus 115

0.0 km/h aus ---

20.7 C

24.4 C

23.2 C

24.4 C

124 W/m

0.00 mm

16:20

23.3 C

1005.3 hpa

86 %

1.6 km/h aus 116

8.0 km/h aus NW

20.8 C

24.5 C

23.3 C

24.5 C

146 W/m

0.00 mm

16:25

23.2 C

1005.3 hpa

87 %

1.6 km/h aus 117

6.4 km/h aus WNW

20.9 C

24.5 C

23.2 C

24.5 C

184 W/m

0.00 mm

16:30

23.4 C

1005.3 hpa

87 %

1.6 km/h aus 116

6.4 km/h aus WNW

21.2 C

24.8 C

23.4 C

24.8 C

222 W/m

0.00 mm

16:35

23.5 C

1005.3 hpa

87 %

1.6 km/h aus 113

6.4 km/h aus WNW

21.2 C

24.9 C

23.5 C

24.9 C

248 W/m

0.00 mm

16:40

23.6 C

1005.3 hpa

87 %

3.2 km/h aus 117

6.4 km/h aus WNW

21.3 C

25.0 C

23.6 C

25.0 C

214 W/m

0.00 mm

16:45

23.5 C

1005.2 hpa

86 %

1.6 km/h aus 118

4.8 km/h aus WNW

21.0 C

24.9 C

23.5 C

24.9 C

216 W/m

0.00 mm

16:50

23.4 C

1005.2 hpa

86 %

4.8 km/h aus 117

9.7 km/h aus WNW

21.0 C

24.8 C

23.4 C

24.8 C

229 W/m

0.00 mm

16:55

23.6 C

1005.2 hpa

85 %

3.2 km/h aus 115

8.0 km/h aus WNW

20.9 C

24.9 C

23.6 C

24.9 C

264 W/m

0.00 mm

17:00

23.9 C

1005.3 hpa

85 %

1.6 km/h aus 116

8.0 km/h aus WNW

21.2 C

25.6 C

23.9 C

25.6 C

382 W/m

0.00 mm

17:05

24.3 C

1005.3 hpa

83 %

1.6 km/h aus 117

6.4 km/h aus WNW

21.2 C

25.9 C

24.3 C

25.9 C

446 W/m

0.00 mm

17:10

24.2 C

1005.3 hpa

82 %

3.2 km/h aus 116

9.7 km/h aus NW

20.9 C

25.8 C

24.2 C

25.8 C

276 W/m

0.00 mm

17:15

23.9 C

1005.3 hpa

82 %

6.4 km/h aus 115

14.5 km/h aus WNW

20.7 C

25.4 C

23.9 C

25.4 C

222 W/m

0.00 mm

17:20

23.9 C

1005.3 hpa

83 %

3.2 km/h aus 115

11.3 km/h aus NW

20.9 C

25.5 C

23.9 C

25.5 C

226 W/m

0.00 mm

17:25

23.8 C

1005.3 hpa

82 %

4.8 km/h aus 117

11.3 km/h aus WNW

20.6 C

25.3 C

23.8 C

25.3 C

203 W/m

0.00 mm

17:30

23.8 C

1005.3 hpa

82 %

3.2 km/h aus 117

9.7 km/h aus WNW

20.6 C

25.3 C

23.8 C

25.3 C

169 W/m

0.00 mm

17:35

23.8 C

1005.3 hpa

83 %

3.2 km/h aus 114

14.5 km/h aus NNW

20.7 C

25.3 C

23.8 C

25.3 C

141 W/m

0.00 mm

17:40

23.7 C

1005.3 hpa

83 %

4.8 km/h aus 114

8.0 km/h aus NW

20.6 C

25.1 C

23.7 C

25.1 C

161 W/m

0.00 mm

17:45

23.7 C

1004.9 hpa

82 %

3.2 km/h aus 118

6.4 km/h aus NW

20.4 C

25.1 C

23.7 C

25.1 C

143 W/m

0.00 mm

17:50

23.7 C

1004.9 hpa

82 %

1.6 km/h aus 117

8.0 km/h aus NW

20.4 C

25.1 C

23.7 C

25.1 C

116 W/m

0.00 mm

17:55

23.7 C

1004.9 hpa

82 %

0.0 km/h aus 116

4.8 km/h aus NW

20.5 C

25.1 C

23.7 C

25.1 C

122 W/m

0.00 mm

18:00

23.7 C

1005.0 hpa

83 %

1.6 km/h aus 115

9.7 km/h aus NW

20.7 C

25.2 C

23.7 C

25.2 C

152 W/m

0.00 mm

18:05

23.8 C

1005.0 hpa

83 %

1.6 km/h aus 115

6.4 km/h aus NW

20.7 C

25.3 C

23.8 C

25.3 C

150 W/m

0.00 mm

18:10

23.8 C

1005.0 hpa

82 %

1.6 km/h aus 116

6.4 km/h aus NW

20.6 C

25.3 C

23.8 C

25.3 C

144 W/m

0.00 mm

18:15

23.8 C

1004.8 hpa

83 %

1.6 km/h aus 116

8.0 km/h aus NW

20.7 C

25.3 C

23.8 C

25.3 C

136 W/m

0.00 mm

18:20

23.8 C

1004.8 hpa

83 %

0.0 km/h aus 114

6.4 km/h aus NW

20.7 C

25.3 C

23.8 C

25.3 C

152 W/m

0.00 mm

18:25

23.7 C

1004.8 hpa

83 %

3.2 km/h aus 116

11.3 km/h aus NNW

20.7 C

25.2 C

23.7 C

25.2 C

150 W/m

0.00 mm

18:30

23.7 C

1005.0 hpa

83 %

1.6 km/h aus 116

8.0 km/h aus NW

20.7 C

25.2 C

23.7 C

25.2 C

167 W/m

0.00 mm

18:35

23.7 C

1005.0 hpa

82 %

1.6 km/h aus 117

8.0 km/h aus WNW

20.5 C

25.1 C

23.7 C

25.1 C

154 W/m

0.00 mm

18:40

23.7 C

1005.0 hpa

82 %

1.6 km/h aus 115

8.0 km/h aus NW

20.4 C

25.1 C

23.7 C

25.1 C

162 W/m

0.00 mm

18:45

23.8 C

1005.3 hpa

82 %

1.6 km/h aus 114

6.4 km/h aus NW

20.5 C

25.2 C

23.8 C

25.2 C

156 W/m

0.00 mm

18:50

23.8 C

1005.3 hpa

81 %

0.0 km/h aus 118

3.2 km/h aus NW

20.4 C

25.2 C

23.8 C

25.2 C

156 W/m

0.00 mm

18:55

23.8 C

1005.3 hpa

81 %

0.0 km/h aus 117

4.8 km/h aus NW

20.4 C

25.2 C

23.8 C

25.2 C

174 W/m

0.00 mm

19:00

23.9 C

1005.3 hpa

82 %

0.0 km/h aus 116

4.8 km/h aus NW

20.7 C

25.4 C

23.9 C

25.4 C

233 W/m

0.00 mm

19:05

24.1 C

1005.3 hpa

81 %

1.6 km/h aus 114

6.4 km/h aus NW

20.6 C

25.6 C

24.1 C

25.6 C

184 W/m

0.00 mm

19:10

24.1 C

1005.3 hpa

81 %

3.2 km/h aus 117

11.3 km/h aus NW

20.6 C

25.6 C

24.1 C

25.6 C

144 W/m

0.00 mm

19:15

24.0 C

1005.3 hpa

81 %

6.4 km/h aus 114

14.5 km/h aus WNW

20.5 C

25.5 C

24.0 C

25.5 C

106 W/m

0.00 mm

19:20

23.9 C

1005.3 hpa

81 %

3.2 km/h aus 116

6.4 km/h aus WNW

20.5 C

25.4 C

23.9 C

25.4 C

92 W/m

0.00 mm

19:25

23.9 C

1005.3 hpa

81 %

3.2 km/h aus 114

8.0 km/h aus NW

20.4 C

25.3 C

23.9 C

25.3 C

77 W/m

0.00 mm

19:30

23.9 C

1005.3 hpa

81 %

1.6 km/h aus 117

8.0 km/h aus NW

20.4 C

25.3 C

23.9 C

25.3 C

53 W/m

0.00 mm

19:35

23.8 C

1005.3 hpa

81 %

0.0 km/h aus 117

4.8 km/h aus NW

20.4 C

25.2 C

23.8 C

25.2 C

55 W/m

0.00 mm

19:40

23.8 C

1005.3 hpa

81 %

0.0 km/h aus 117

3.2 km/h aus WNW

20.3 C

25.2 C

23.8 C

25.2 C

66 W/m

0.00 mm

19:45

23.7 C

1005.3 hpa

81 %

0.0 km/h aus 113

0.0 km/h aus ---

20.3 C

25.1 C

23.7 C

25.1 C

83 W/m

0.00 mm

19:50

23.7 C

1005.3 hpa

82 %

0.0 km/h aus 116

0.0 km/h aus ---

20.4 C

25.1 C

23.7 C

25.1 C

79 W/m

0.00 mm

19:55

23.7 C

1005.3 hpa

82 %

3.2 km/h aus 118

8.0 km/h aus NW

20.4 C

25.1 C

23.7 C

25.1 C

69 W/m

0.00 mm

20:00

23.6 C

1005.1 hpa

82 %

3.2 km/h aus 117

9.7 km/h aus NW

20.4 C

24.9 C

23.6 C

24.9 C

70 W/m

0.00 mm

20:05

23.5 C

1005.1 hpa

82 %

3.2 km/h aus 116

11.3 km/h aus NNW

20.2 C

24.8 C

23.5 C

24.8 C

82 W/m

0.00 mm

20:10

23.4 C

1005.1 hpa

82 %

4.8 km/h aus 114

14.5 km/h aus WNW

20.1 C

24.6 C

23.4 C

24.6 C

93 W/m

0.00 mm

20:15

23.3 C

1004.9 hpa

82 %

3.2 km/h aus 117

8.0 km/h aus WNW

20.1 C

24.5 C

23.3 C

24.5 C

81 W/m

0.00 mm

20:20

23.3 C

1004.9 hpa

82 %

1.6 km/h aus 116

4.8 km/h aus NW

20.0 C

24.4 C

23.3 C

24.4 C

62 W/m

0.00 mm

20:25

23.3 C

1004.9 hpa

82 %

3.2 km/h aus 117

9.7 km/h aus NW

20.0 C

24.4 C

23.3 C

24.4 C

61 W/m

0.00 mm

20:30

23.2 C

1004.8 hpa

82 %

3.2 km/h aus 113

11.3 km/h aus NW

20.0 C

24.3 C

23.2 C

24.3 C

50 W/m

0.00 mm

20:35

23.2 C

1004.8 hpa

82 %

3.2 km/h aus 117

8.0 km/h aus NW

19.9 C

24.3 C

23.2 C

24.3 C

37 W/m

0.00 mm

20:40

23.1 C

1004.8 hpa

82 %

3.2 km/h aus 117

8.0 km/h aus WNW

19.9 C

24.2 C

23.1 C

24.2 C

31 W/m

0.00 mm

20:45

23.1 C

1005.2 hpa

82 %

0.0 km/h aus 117

6.4 km/h aus WNW

19.8 C

24.2 C

23.1 C

24.2 C

32 W/m

0.00 mm

20:50

23.0 C

1005.2 hpa

83 %

0.0 km/h aus 115

0.0 km/h aus ---

20.0 C

24.1 C

23.0 C

24.1 C

32 W/m

0.00 mm

20:55

23.0 C

1005.2 hpa

83 %

0.0 km/h aus 117

0.0 km/h aus ---

20.0 C

24.1 C

23.0 C

24.1 C

33 W/m

0.00 mm

21:00

22.9 C

1005.3 hpa

83 %

0.0 km/h aus 117

0.0 km/h aus ---

19.9 C

24.1 C

22.9 C

24.1 C

31 W/m

0.00 mm

21:05

22.9 C

1005.3 hpa

84 %

0.0 km/h aus 117

0.0 km/h aus ---

20.1 C

24.1 C

22.9 C

24.1 C

23 W/m

0.00 mm

21:10

22.9 C

1005.3 hpa

84 %

0.0 km/h aus 114

0.0 km/h aus ---

20.0 C

24.1 C

22.9 C

24.1 C

18 W/m

0.00 mm

21:15

22.8 C

1005.1 hpa

84 %

1.6 km/h aus 115

6.4 km/h aus WNW

20.0 C

24.0 C

22.8 C

24.0 C

13 W/m

0.00 mm

21:20

22.8 C

1005.1 hpa

85 %

1.6 km/h aus 117

6.4 km/h aus WNW

20.1 C

23.9 C

22.8 C

23.9 C

11 W/m

0.00 mm

21:25

22.7 C

1005.1 hpa

85 %

3.2 km/h aus 116

9.7 km/h aus WNW

20.1 C

23.9 C

22.7 C

23.9 C

7 W/m

0.00 mm

21:30

22.6 C

1005.0 hpa

86 %

3.2 km/h aus 116

14.5 km/h aus NW

20.1 C

23.8 C

22.6 C

23.8 C

4 W/m

0.00 mm

21:35

22.5 C

1005.0 hpa

86 %

4.8 km/h aus 114

14.5 km/h aus WNW

20.0 C

23.6 C

22.5 C

23.6 C

0 W/m

0.00 mm

21:40

22.4 C

1005.0 hpa

86 %

4.8 km/h aus 116

11.3 km/h aus NW

19.9 C

23.5 C

22.4 C

23.5 C

0 W/m

0.00 mm

21:45

22.2 C

1005.3 hpa

86 %

3.2 km/h aus 117

9.7 km/h aus NW

19.8 C

23.3 C

22.2 C

23.3 C

0 W/m

0.00 mm

21:50

22.2 C

1005.3 hpa

87 %

3.2 km/h aus 117

9.7 km/h aus WNW

19.9 C

23.3 C

22.2 C

23.3 C

0 W/m

0.00 mm

21:55

22.1 C

1005.3 hpa

87 %

1.6 km/h aus 114

8.0 km/h aus WNW

19.8 C

23.2 C

22.1 C

23.2 C

0 W/m

0.00 mm

22:00

22.0 C

1005.5 hpa

87 %

3.2 km/h aus 117

8.0 km/h aus WNW

19.7 C

23.1 C

22.0 C

23.1 C

0 W/m

0.00 mm

22:05

21.9 C

1005.5 hpa

87 %

1.6 km/h aus 117

6.4 km/h aus W

19.6 C

23.0 C

21.9 C

23.0 C

0 W/m

0.00 mm

22:10

21.8 C

1005.5 hpa

87 %

3.2 km/h aus 117

6.4 km/h aus W

19.5 C

22.9 C

21.8 C

22.9 C

0 W/m

0.00 mm

22:15

21.7 C

1005.4 hpa

87 %

3.2 km/h aus 114

8.0 km/h aus WNW

19.4 C

22.8 C

21.7 C

22.8 C

0 W/m

0.00 mm

22:20

21.6 C

1005.4 hpa

88 %

1.6 km/h aus 115

9.7 km/h aus WNW

19.5 C

22.7 C

21.6 C

22.7 C

0 W/m

0.00 mm

22:25

21.5 C

1005.4 hpa

88 %

1.6 km/h aus 117

8.0 km/h aus WNW

19.4 C

22.6 C

21.5 C

22.6 C

0 W/m

0.00 mm

22:30

21.4 C

1005.4 hpa

88 %

0.0 km/h aus 117

4.8 km/h aus WNW

19.4 C

22.5 C

21.4 C

22.5 C

0 W/m

0.00 mm

22:35

21.3 C

1005.4 hpa

88 %

3.2 km/h aus 117

8.0 km/h aus WNW

19.3 C

22.4 C

21.3 C

22.4 C

0 W/m

0.00 mm

22:40

21.3 C

1005.4 hpa

89 %

1.6 km/h aus 114

4.8 km/h aus WNW

19.4 C

22.4 C

21.3 C

22.4 C

0 W/m

0.00 mm

22:45

21.2 C

1005.3 hpa

89 %

0.0 km/h aus 117

3.2 km/h aus WNW

19.3 C

22.3 C

21.2 C

22.3 C

0 W/m

0.00 mm

22:50

21.2 C

1005.3 hpa

89 %

0.0 km/h aus 117

0.0 km/h aus ---

19.3 C

22.2 C

21.2 C

22.2 C

0 W/m

0.00 mm

22:55

21.1 C

1005.3 hpa

89 %

0.0 km/h aus 117

0.0 km/h aus ---

19.2 C

22.2 C

21.1 C

22.2 C

0 W/m

0.00 mm

23:00

21.1 C

1005.3 hpa

89 %

0.0 km/h aus 115

0.0 km/h aus ---

19.2 C

22.1 C

21.1 C

22.1 C

0 W/m

0.00 mm

23:05

21.0 C

1005.3 hpa

89 %

0.0 km/h aus 116

0.0 km/h aus ---

19.1 C

22.1 C

21.0 C

22.1 C

0 W/m

0.00 mm

23:10

20.9 C

1005.3 hpa

89 %

0.0 km/h aus 117

0.0 km/h aus ---

19.1 C

22.0 C

20.9 C

22.0 C

0 W/m

0.00 mm

23:15

20.8 C

1005.4 hpa

89 %

0.0 km/h aus 116

0.0 km/h aus ---

19.0 C

21.9 C

20.8 C

21.9 C

0 W/m

0.00 mm

23:20

20.8 C

1005.4 hpa

88 %

0.0 km/h aus 116

0.0 km/h aus ---

18.7 C

21.8 C

20.8 C

21.8 C

0 W/m

0.00 mm

23:25

20.7 C

1005.4 hpa

89 %

0.0 km/h aus 114

0.0 km/h aus ---

18.8 C

21.8 C

20.7 C

21.8 C

0 W/m

0.00 mm

23:30

20.7 C

1005.4 hpa

88 %

0.0 km/h aus 117

0.0 km/h aus ---

18.6 C

21.7 C

20.7 C

21.7 C

0 W/m

0.00 mm

23:35

20.6 C

1005.4 hpa

88 %

0.0 km/h aus 117

0.0 km/h aus ---

18.6 C

21.7 C

20.6 C

21.7 C

0 W/m

0.00 mm

23:40

20.5 C

1005.4 hpa

88 %

0.0 km/h aus 117

0.0 km/h aus ---

18.4 C

21.6 C

20.5 C

21.6 C

0 W/m

0.00 mm

23:45

20.4 C

1005.4 hpa

88 %

0.0 km/h aus 115

0.0 km/h aus ---

18.4 C

21.5 C

20.4 C

21.5 C

0 W/m

0.00 mm

23:50

20.3 C

1005.4 hpa

88 %

0.0 km/h aus 115

0.0 km/h aus ---

18.3 C

21.3 C

20.3 C

21.3 C

0 W/m

0.00 mm

23:55

20.3 C

1005.4 hpa

88 %

0.0 km/h aus 117

0.0 km/h aus ---

18.2 C

21.3 C

20.3 C

21.3 C

0 W/m

0.00 mm